Location: Calvatone
(45.1167°N, 10.4333°E)
Time: 16:21:30
(UTC+00:00)

BlueWalker 3 - Pass Details

Date: 10 June 2023
Orbit: 491 x 508 km, 53.2° (Epoch: 28 September)

Event Time Altitude Azimuth Distance (km) Brightness Sun altitude
Rises 20:28:01 0° 303° (WNW) 2,578 7.1 -11.6°
Reaches altitude 10° 20:30:18 10° 311° (NW) 1,697 6.1 -11.9°
Maximum altitude 20:33:55 38° 21° (NNE) 768 3.1 -12.3°
Drops below altitude 10° 20:37:32 10° 92° (E) 1,705 4.3 -12.7°
Enters shadow 20:37:41 - 92° (E) 1,759 4.3 -12.7°
